Regional Weather Roundup
Issued by NWS

Home | Current Version | Previous Version | Graphics & Text | Print | Product List | Glossary On
Versions: 1 2 3 4 5 6 7 8 9 10 11 12 13 14 15 16 17 18 19 20 21 22 23 24 25 26 27 28 29 30 31 32 33 34 35 36 37 38 39 40 41 42 43 44 45 46 47 48 49 50
000
ASUS43 KMPX 241501
RWRMN
WEATHER ROUNDUP FOR MINNESOTA
NATIONAL WEATHER SERVICE TWIN CITIES/CHANHASSEN MN
900 AM CST FRI FEB 24 2017


NOTE: "FAIR" INDICATES FEW OR NO CLOUDS BELOW 12,000 FEET WITH NO
SIGNIFICANT WEATHER AND/OR OBSTRUCTIONS TO VISIBILITY. N/A MEANS
CURRENT SKY AND/OR WEATHER CONDITIONS ARE NOT AVAILABLE.

MNZ060>063-068>070-241600-
   Twin Cities Metro

CITY           SKY/WX    TMP DP  RH WIND       PRES   REMARKS
TWIN CITIES    CLOUDY    25  15  66 N16G25    29.86R WCI  12
ST PAUL        CLOUDY    26  17  68 N13G22    29.87R WCI  15
CRYSTAL        CLOUDY    24  14  65 N15       29.87R WCI  11
BLAINE         CLOUDY    27  18  69 N14G22    29.86R WCI  15
LAKEVILLE      CLOUDY    25  19  80 N15G21    29.83R WCI  12
EDEN PRAIRIE   CLOUDY    25  15  66 N15       29.85R WCI  13
SOUTH ST PAUL  CLOUDY    27  17  68 N15G22    29.84R WCI  15
LAKE ELMO      CLOUDY    27  21  80 N14G20    29.84R WCI  15
$$
MNZ001>005-007-008-013>017-022>024-027-028-241600-
   Northwest Minnesota

CITY           SKY/WX    TMP DP  RH WIND       PRES   REMARKS
BEMIDJI        MOSUNNY    9   5  84 N6        30.03F WCI  -1
HALLOCK        MOSUNNY   14   9  79 N9        30.16S WCI   2
ROSEAU         MOSUNNY    7   1  78 NW5       30.13S WCI  -2
WARROAD        MOSUNNY    7   1  78 NW8       30.12S WCI  -6
CROOKSTON      CLOUDY    16   9  73 N9        30.14F WCI   4
FOSSTON        CLOUDY    12   7  79 N12       30.07S WCI  -2
DETROIT LAKES  CLOUDY    16   9  73 N7        30.04S WCI   6
MOORHEAD       CLOUDY    18  10  73 N18       30.10S WCI   2
PARK RAPIDS    MOSUNNY   12   3  67 N10       30.00S WCI  -1
MAHNOMEN       FAIR      14   7  73 N14       30.06S WCI  -1
$$
MNZ006-009>011-018-025>026-241600-
   North Central Minnesota

CITY           SKY/WX    TMP DP  RH WIND       PRES   REMARKS
BAUDETTE       MOSUNNY    6   1  80 NW6       30.08S WCI  -4
FLAG ISLAND    SUNNY      5   1  85 NW8       30.10F WCI  -8
INTL FALLS     CLOUDY    11   2  67 N8        30.04F WCI  -1
WASKISH        MOSUNNY    9   3  78 N5        30.06F WCI   0
BIG FORK       MOSUNNY   10   5  79 N6        30.01F WCI   1
LONGVILLE      CLOUDY    12   7  79 N6        29.99F WCI   3
GRAND RAPIDS   CLOUDY    12   6  77 N12       30.00S WCI  -2
CRANE LAKE     MOSUNNY    9   1  72 N6        30.05F WCI  -1
ORR            CLOUDY    10   1  67 CALM      29.97F
COOK           CLOUDY    12   3  67 N6        29.99F WCI   3
WALKER         FAIR      10   4  77 N9        30.01F WCI  -2
$$
MNZ012-019>021-037-241600-
   Northeast Minnesota

CITY           SKY/WX    TMP DP  RH WIND       PRES   REMARKS
DULUTH         CLOUDY    16  10  77 N12       29.90F WCI   3
ELY            MOSUNNY   10   1  67 NE8       29.97F WCI  -1
HIBBING        MOSUNNY   12   4  70 N12       29.96F WCI  -2
EVELETH        MOSUNNY   14   1  57 NE9       29.96F WCI   2
DULUTH HARBOR  CLOUDY    21  16  79 N21       29.96F WCI   6
TWO HARBORS    PTSUNNY   19  10  68 N8        29.92F WCI   9
SILVER BAY     PTSUNNY   16   7  67 N7        29.94S WCI   6
GRAND MARAIS     N/A     16   3  56 NE7       30.03R WCI   6
G MARAIS ARPRT CLOUDY     7  -2  66 N8        29.92R WCI  -6
$$
MNZ029>031-032-039>041-046>048-054>057-064-241600-
   West Central Minnesota

CITY           SKY/WX    TMP DP  RH WIND       PRES   REMARKS
FERGUS FALLS   PTSUNNY   18   9  68 N12       30.09S WCI   5
WHEATON        PTSUNNY   19  10  68 N16G23    30.07F WCI   5
MORRIS         CLOUDY    19  10  68 N18G29    30.00S WCI   4
ALEXANDRIA     CLOUDY    17   9  70 N16       29.98R WCI   2
ELBOW LAKE     FAIR      17   9  68 N15       30.02S WCI   3
WADENA         PTSUNNY   14   9  79 N10       29.99S WCI   1
GLENWOOD       CLOUDY    18  10  73 N14G25    29.97R WCI   4
APPLETON       CLOUDY    21  12  68 N23       30.00S WCI   5
BENSON         CLOUDY    21   9  58 NE15G25   29.99S WCI   8
ORTONVILLE       N/A     19  10  68 N23       30.02R WCI   2
MADISON        CLOUDY    23  12  63 N20       30.00S WCI   8
WILLMAR        FAIR      23  12  63 N20G28    29.95S WCI   8
$$
MNZ033>034-036-042>043-049>051-058-059-241600-
   Central Minnesota

CITY           SKY/WX    TMP DP  RH WIND       PRES   REMARKS
ST CLOUD       CLOUDY    21  11  65 N15G26    29.92R WCI   8
SAUK CENTRE    FAIR      18   9  66 N15G23    29.96R WCI   4
PAYNESVILLE    CLOUDY    21  11  66 N18       29.94R WCI   6
AITKIN         PTSUNNY   18   9  68 N16G22    29.93F WCI   3
PINE RIVER     CLOUDY    12   9  85 N12       30.02S WCI  -2
BRAINERD       CLOUDY    16   7  67 N10       29.96F WCI   4
STAPLES        CLOUDY    14   9  79 N12       29.98S WCI   0
LONG PRAIRIE   FAIR      18   9  68 NW14G21   29.97R WCI   4
LITTLE FALLS   CLOUDY    19   9  63 N9G18     29.96S WCI   9
LITCHFIELD     CLOUDY    23  12  63 N15G23    29.91S WCI  10
BUFFALO        CLOUDY    23  14  68 N16       29.90R WCI   9
MAPLE LAKE     CLOUDY    24  15  71 N18G25    29.91R WCI   9
HUTCHINSON     CLOUDY    24  15  68 N12G25    29.90R WCI  13
$$
MNZ037-044-045-052-053-241600-
   East Central Minnesota

CITY           SKY/WX    TMP DP  RH WIND       PRES   REMARKS
PRINCETON      CLOUDY    23  14  68 N15G21    29.90R WCI  10
MORA           CLOUDY    21  12  68 N6        29.92S WCI  14
CAMBRIDGE      CLOUDY    25  14  63 N12G20    29.87R WCI  14
RUSH CITY      CLOUDY    23  16  74 N13G20    29.89S WCI  11
MOOSE LAKE     CLOUDY    19  12  73 N12G18    29.90F WCI   7
HINCKLEY       PTSUNNY   23  16  74 N13       29.90S WCI  11
CLOQUET        CLOUDY    16  10  79 N9G18     29.92S WCI   4
MCGREGOR       CLOUDY    18  12  79 N12       29.95S WCI   5
$$
MNZ071>073-080-081-089-090-097-098-241600-
   Southwest Minnesota

CITY           SKY/WX    TMP DP  RH WIND       PRES   REMARKS
MONTEVIDEO     CLOUDY    21  12  68 NE24G31   29.98S WCI   4
GRANITE FALLS  CLOUDY    24  15  68 N23G29    29.97S WCI   8
CANBY          CLOUDY    22  13  69 N21       30.00R WCI   7
MARSHALL       CLOUDY    21  14  74 N21G28    29.94R WCI   5
REDWOOD FALLS  CLOUDY    24  12  60 N16G25    29.92R WCI  11
OLIVIA         CLOUDY    23  14  68 N21G26    29.92R WCI   8
PIPESTONE      CLOUDY    19  10  68 NE20G35   29.88R WCI   4
WINDOM         CLOUDY    21  16  79 N25G31    29.85R WCI   4
WORTHINGTON    CLOUDY    20  16  84 N25G33    29.85S FOG     WCI   2
JACKSON        LGT SNOW  21  19  93 N20G28    29.83R VSB 3/4 WCI   6
TRACY          CLOUDY    23  17  76 N23G29    29.91S WCI   7
SLAYTON        CLOUDY    19  15  82 N24G33    29.88R FOG     WCI   2
$$
MNZ065>067-074>077-082>085-091>093-241600-
   South Central Minnesota

CITY           SKY/WX    TMP DP  RH WIND       PRES   REMARKS
MANKATO        LGT SNOW  23  19  85 N25       29.83S FOG     WCI   7
NEW ULM        CLOUDY    25  14  63 N14G23    29.85F WCI  13
ST JAMES       LGT SNOW  21  19  93 N21G26    29.86S VSB 1   WCI   6
FAIRMONT       LGT SNOW  21  19  93 N23       29.81R VSB 1   WCI   5
GLENCOE        CLOUDY    25  18  75 N13G22    29.88R WCI  14
FARIBAULT      LGT SNOW  25  19  80 N15       29.80S WCI  12
OWATONNA         N/A     25  21  86 N18G25    29.76F WCI  11
WASECA         LGT SNOW  23  19  86 N23G29    29.79F WCI   7
ALBERT LEA     CLOUDY    27  25  93 N20       29.72F FOG     WCI  13
$$
MNZ078>079-086>088-094>096-241600-
   Southeast Minnesota

CITY           SKY/WX    TMP DP  RH WIND       PRES   REMARKS
ROCHESTER      CLOUDY    26  25  96 N21G31    29.70R FOG     WCI  12
RED WING       LGT SNOW  28  21  74 N9G18     29.80R WCI  20
STANTON        LGT SNOW  27  22  82 N18       29.80R WCI  13
WINONA         MIX PCPN  30  28  93 N6        29.74R WCI  24
AUSTIN           N/A     27  25  93 N14G23    29.70S WCI  15
PRESTON          N/A     27  25  91 N15G23    29.67S WCI  15
$$
ABBREVIATIONS USED IN REMARKS
   TC - TEMPERATURES IN CELSIUS
  WCI - WIND CHILL INDEX
   HX - HEAT INDEX
  VSB - VISIBILITY
$$




USA.gov is the U.S. government's official web portal to all federal, state and local government web resources and services.